Weather History for KD50 - April, 2014

Change the Weather History Date:

Tuesday, April 29, 2014

  Actual Average (KISN) Record (KISN)
Temperature  
Mean Temperature 40 °F 49 °F  
Max Temperature 48 °F 63 °F 91 °F (1949)
Min Temperature 32 °F 35 °F 12 °F (1929)
Degree Days  
Heating Degree Days 25 16  
Month to date heating degree days 634  
Since 1 July heating degree days 8509  
Cooling Degree Days 0 0  
Month to date cooling degree days 0  
Year to date cooling degree days 0  
Moisture  
Dew Point 36 °F    
Average Humidity 95    
Maximum Humidity 100    
Minimum Humidity 76    
Precipitation  
Precipitation 0.32 in 0.04 in 0.75 in (2011)
Month to date precipitation 0.95  
Year to date precipitation 2.64  
Sea Level Pressure  
Sea Level Pressure 30.23 in    
Wind  
Wind Speed 13 mph (North)    
Max Wind Speed 23 mph    
Max Gust Speed 30 mph    
T = Trace of Precipitation, MM = Missing Value Source: NWS Daily Summary

Daily Weather History Graph

Daily Weather History Graph

Search for Another Location

Airport or City:

Trip Planner

Search our weather history database for the weather conditions in past years. The results will help you decide how hot, cold, wet, or windy it might be!

Date:

Astronomy

Apr. 29, 2014 Rise Set
Actual Time 6:35 AM CDT 9:06 PM CDT
Civil Twilight 6:00 AM CDT 9:41 PM CDT
Nautical Twilight 5:16 AM CDT 10:26 PM CDT
Astronomical Twilight 4:24 AM CDT 11:18 PM CDT
Moon 6:56 AM CDT (4/29) 9:50 PM CDT (4/29)
Length of Visible Light 15h 40m
Length of Day
14h 30m
New Moon, 0% of the Moon is Illuminated
Apr 29
New Moon
May 6
First Quarter
May 14
Full
May 21
Last Quarter
May 28
New

Hourly Weather History & Observations

Time (CDT) Temp. Windchill Dew Point Humidity Pressure Visibility Wind Dir Wind Speed Gust Speed Precip Events Conditions
12:15 AM 32.0 °F 23.6 °F 32.0 °F 100% 30.05 in - North 10.4 mph - 0.01 in Snow Heavy Snow
12:35 AM 32.0 °F 23.0 °F 32.0 °F 100% 30.06 in - North 11.5 mph - 0.01 in   Overcast
12:55 AM 32.0 °F 23.6 °F 32.0 °F 100% 30.07 in - North 10.4 mph - 0.02 in Snow Heavy Snow
1:15 AM 32.0 °F 23.6 °F 32.0 °F 100% 30.07 in - North 10.4 mph - 0.02 in Snow Heavy Snow
1:35 AM 32.0 °F 23.6 °F 32.0 °F 100% 30.08 in - North 10.4 mph - 0.08 in Snow Heavy Snow
1:55 AM 32.0 °F 23.6 °F 32.0 °F 100% 30.08 in - North 10.4 mph - 0.09 in   Overcast
2:15 AM 32.0 °F 23.6 °F 32.0 °F 100% 30.09 in - North 10.4 mph - N/A Snow Heavy Snow
2:35 AM 32.0 °F 23.6 °F 32.0 °F 100% 30.09 in - North 10.4 mph - 0.06 in Snow Heavy Snow
2:55 AM 32.0 °F 24.2 °F 32.0 °F 100% 30.10 in - North 9.2 mph - 0.14 in Snow Heavy Snow
3:15 AM 32.0 °F 24.2 °F 32.0 °F 100% 30.10 in - North 9.2 mph - 0.02 in Snow Heavy Snow
3:35 AM 32.0 °F 23.6 °F 32.0 °F 100% 30.11 in - North 10.4 mph - 0.02 in   Overcast
3:55 AM 32.0 °F 24.2 °F 32.0 °F 100% 30.12 in - North 9.2 mph - 0.02 in   Overcast
4:15 AM 32.0 °F 24.2 °F 32.0 °F 100% 30.12 in - North 9.2 mph - N/A   Overcast
4:35 AM 32.0 °F 24.2 °F 32.0 °F 100% 30.13 in - North 9.2 mph - N/A   Overcast
4:55 AM 32.0 °F 23.6 °F 32.0 °F 100% 30.13 in - North 10.4 mph - N/A   Overcast
5:15 AM 32.0 °F 24.8 °F 32.0 °F 100% 30.14 in - North 8.1 mph - N/A   Overcast
5:35 AM 32.0 °F 24.2 °F 32.0 °F 100% 30.15 in - North 9.2 mph - N/A   Overcast
6:15 AM 32.0 °F 24.2 °F 32.0 °F 100% 30.17 in - North 9.2 mph - 0.02 in Snow Heavy Snow
6:35 AM 32.0 °F 23.6 °F 32.0 °F 100% 30.18 in - North 10.4 mph - 0.03 in Snow Heavy Snow
6:55 AM 32.0 °F 23.6 °F 32.0 °F 100% 30.18 in - North 10.4 mph - 0.03 in Snow Heavy Snow
7:15 AM 32.0 °F 24.2 °F 32.0 °F 100% 30.19 in - North 9.2 mph - 0.01 in Snow Heavy Snow
7:35 AM 32.0 °F 23.6 °F 32.0 °F 100% 30.20 in - North 10.4 mph - 0.02 in   Overcast
8:15 AM 32.0 °F 23.6 °F 32.0 °F 100% 30.22 in - North 10.4 mph - N/A   Overcast
8:35 AM 32.0 °F 23.0 °F 32.0 °F 100% 30.23 in - North 11.5 mph - N/A   Overcast
8:55 AM 32.0 °F 22.5 °F 32.0 °F 100% 30.24 in - North 12.7 mph - N/A   Overcast
9:15 AM 32.0 °F 23.0 °F 32.0 °F 100% 30.25 in - North 11.5 mph - N/A   Overcast
9:35 AM 32.0 °F 22.1 °F 32.0 °F 100% 30.25 in - North 13.8 mph - N/A   Unknown
10:15 AM 33.8 °F 24.8 °F 33.8 °F 100% 30.27 in - North 12.7 mph - N/A   Unknown
10:35 AM 33.8 °F 24.8 °F 33.8 °F 100% 30.28 in - North 12.7 mph - N/A   Unknown
10:55 AM 35.6 °F 26.6 °F 35.6 °F 100% 30.28 in - North 13.8 mph - N/A   Unknown
11:15 AM 35.6 °F 26.2 °F 35.6 °F 100% 30.28 in - North 15.0 mph - N/A   Overcast
11:35 AM 35.6 °F 26.6 °F 35.6 °F 100% 30.29 in - North 13.8 mph - N/A   Overcast
11:55 AM 35.6 °F 26.2 °F 35.6 °F 100% 30.29 in - NNW 15.0 mph - N/A   Unknown
12:15 PM 35.6 °F 26.6 °F 35.6 °F 100% 30.29 in - North 13.8 mph - N/A   Mostly Cloudy
12:35 PM 37.4 °F 27.8 °F 37.4 °F 100% 30.30 in - NNW 17.3 mph 21.9 mph N/A   Unknown
12:55 PM 37.4 °F 28.2 °F 37.4 °F 100% 30.30 in - North 16.1 mph - N/A   Unknown
1:15 PM 37.4 °F 27.5 °F 37.4 °F 100% 30.30 in - North 18.4 mph - N/A   Unknown
1:35 PM 37.4 °F 27.2 °F 37.4 °F 100% 30.30 in - North 19.6 mph 23.0 mph N/A   Unknown
1:55 PM 39.2 °F 29.6 °F 37.4 °F 93% 30.30 in - North 19.6 mph 26.5 mph N/A   Unknown
2:15 PM 39.2 °F 29.3 °F 37.4 °F 93% 30.30 in - North 20.7 mph 26.5 mph N/A   Unknown
2:35 PM 39.2 °F 29.0 °F 37.4 °F 93% 30.30 in - NNW 21.9 mph 26.5 mph N/A   Unknown
2:55 PM 41.0 °F 31.9 °F 39.2 °F 93% 30.30 in - NNW 19.6 mph 26.5 mph N/A   Unknown
3:15 PM 41.0 °F 31.1 °F 39.2 °F 93% 30.30 in - NNW 23.0 mph - N/A   Unknown
3:35 PM 44.6 °F 36.4 °F 41.0 °F 87% 30.29 in - NNW 20.7 mph 27.6 mph N/A   Unknown
3:55 PM 44.6 °F 35.9 °F 41.0 °F 87% 30.29 in - NNW 23.0 mph 28.8 mph N/A   Unknown
4:15 PM 44.6 °F 35.9 °F 41.0 °F 87% 30.28 in - NNW 23.0 mph 29.9 mph N/A   Unknown
4:35 PM 46.4 °F 38.5 °F 41.0 °F 81% 30.28 in - North 21.9 mph 27.6 mph N/A   Clear
5:15 PM 46.4 °F 38.5 °F 41.0 °F 81% 30.28 in - North 21.9 mph 26.5 mph N/A   Partly Cloudy
5:35 PM 46.4 °F 38.7 °F 41.0 °F 81% 30.27 in - North 20.7 mph 26.5 mph N/A   Clear
5:55 PM 46.4 °F 39.0 °F 41.0 °F 81% 30.27 in - North 19.6 mph 26.5 mph N/A   Clear
6:15 PM 48.2 °F - 41.0 °F 76% 30.28 in - NNW 20.7 mph 28.8 mph N/A   Partly Cloudy
6:35 PM 46.4 °F 38.5 °F 39.2 °F 76% 30.28 in - NNW 21.9 mph 26.5 mph N/A   Clear
6:55 PM 46.4 °F 39.8 °F 41.0 °F 81% 30.28 in - North 16.1 mph - N/A   Scattered Clouds
7:15 PM 46.4 °F 38.7 °F 41.0 °F 81% 30.28 in - NNW 20.7 mph 25.3 mph N/A   Scattered Clouds
7:35 PM 46.4 °F 38.7 °F 39.2 °F 76% 30.28 in - NNW 20.7 mph 26.5 mph N/A   Mostly Cloudy
7:55 PM 46.4 °F 39.2 °F 39.2 °F 76% 30.28 in - NNW 18.4 mph 27.6 mph N/A   Mostly Cloudy
8:15 PM 44.6 °F 37.4 °F 39.2 °F 81% 30.28 in - NNW 16.1 mph - N/A   Scattered Clouds
8:35 PM 44.6 °F 37.2 °F 39.2 °F 81% 30.28 in - NNW 17.3 mph - N/A   Scattered Clouds
8:55 PM 44.6 °F 37.2 °F 39.2 °F 81% 30.28 in - NNW 17.3 mph 23.0 mph N/A   Mostly Cloudy
9:15 PM 44.6 °F 36.9 °F 39.2 °F 81% 30.28 in - NNW 18.4 mph 21.9 mph N/A   Mostly Cloudy
10:15 PM 41.0 °F 31.6 °F 41.0 °F 100% 30.29 in - NNW 20.7 mph 26.5 mph N/A   Unknown
10:35 PM 39.2 °F 29.8 °F 39.2 °F 100% 30.29 in - NNW 18.4 mph 25.3 mph N/A   Unknown
10:55 PM 39.2 °F 30.2 °F 39.2 °F 100% 30.30 in - NW 17.3 mph - N/A   Unknown
11:15 PM 37.4 °F 27.8 °F 37.4 °F 100% 30.30 in - NW 17.3 mph 24.2 mph N/A   Unknown
11:35 PM 37.4 °F 27.5 °F 37.4 °F 100% 30.29 in - NW 18.4 mph 25.3 mph N/A   Unknown
11:55 PM 35.6 °F 25.2 °F 35.6 °F 100% 30.29 in - NW 18.4 mph - N/A   Unknown